Tracking 30072 objects as of 14-Jan-2025
HD Live streaming from Space Station
objects crossing your sky now

STARLINK-2725

Track STARLINK-2725 now!
10-day predictions
STARLINK-2725 is classified as:


NORAD ID: 48681
Int'l Code: 2021-044AV
Perigee: 553.5 km
Apogee: 555.3 km
Inclination: 53.1 °
Period: 95.6 minutes
Semi major axis: 6925 km
RCS: Unknown
Launch date: May 26, 2021
Source: United States (US)
Launch site: AIR FORCE EASTERN TEST RANGE (AFETR)
Your satellite tracking list
Your tracking list is empty




NASA's NSSDC Master Catalog

Two Line Element Set (TLE):
1 48681U 21044AV  25013.68161186  .00007684  00000-0  53441-3 0  9991
2 48681  53.0524 167.3465 0001283  84.3628 275.7507 15.06384076200954
Source of the keplerian elements: AFSPC